Chillicothe, MO

7:38 PM CDT on October 22, 2019 (GMT -0500)
Chillicothe

Weather History for KCDJ - August, 2019

Change the Weather History Date:

Thursday, August 1, 2019

  Actual Average (KIRK) Record (KIRK)
Temperature  
Mean Temperature 75 °F -  
Max Temperature 82 °F 85 °F 101 °F (1940)
Min Temperature 68 °F 62 °F 53 °F (1925)
Cooling Degree Days 10    
Growing Degree Days 25 (Base 50)    
Moisture  
Dew Point 66 °F    
Average Humidity 75    
Maximum Humidity 93    
Minimum Humidity 60    
Precipitation  
Precipitation 0.00 in - - ()
Sea Level Pressure  
Sea Level Pressure 30.11 in    
Wind  
Wind Speed 4 mph (ESE)    
Max Wind Speed 7 mph    
Max Gust Speed 16 mph    
Averages and records for this station are not official NWS values.
T = Trace of Precipitation, MM = Missing Value Source: NWS Daily Summary

Daily Weather History Graph

Daily Weather History Graph

Search for Another Location

Airport or City:

Astronomy

Aug. 01, 2019 Rise Set
Actual Time 6:12 AM CDT 8:27 PM CDT
Civil Twilight 5:42 AM CDT 8:57 PM CDT
Nautical Twilight 5:05 AM CDT 9:34 PM CDT
Astronomical Twilight 4:24 AM CDT 10:15 PM CDT
Moon 6:38 AM CDT (8/1) 9:15 PM CDT (8/1)
Length of Visible Light 15h 15m
Length of Day
14h 14m
New Moon, 1% of the Moon is Illuminated
Aug 1
New Moon
Aug 7
First Quarter
Aug 15
Full
Aug 23
Last Quarter
Aug 30
New

Hourly Weather History & Observations

Time (CDT) Temp. Heat Index Dew Point Humidity Pressure Visibility Wind Dir Wind Speed Gust Speed Precip Events Conditions
12:52 AM 70.0 °F - 66.9 °F 90% 30.11 in - Variable 3.5 mph - N/A   Unknown
1:52 AM 69.1 °F - 66.9 °F 93% 30.10 in - NE 4.6 mph - N/A   Unknown
2:52 AM 69.1 °F - 66.0 °F 90% 30.10 in - Calm Calm - N/A   Unknown
3:52 AM 69.1 °F - 64.9 °F 87% 30.10 in - East 4.6 mph - N/A   Unknown
4:52 AM 69.1 °F - 64.9 °F 87% 30.10 in - Variable 4.6 mph - N/A   Unknown
5:52 AM 68.0 °F - 66.0 °F 93% 30.13 in - Calm Calm - N/A   Unknown
6:52 AM 69.1 °F - 66.0 °F 90% 30.14 in - Calm Calm - N/A   Unknown
7:52 AM 71.1 °F - 66.0 °F 84% 30.14 in - Variable 4.6 mph - N/A   Unknown
8:52 AM 73.9 °F - 66.9 °F 79% 30.13 in - Variable 3.5 mph - N/A   Unknown
9:52 AM 75.0 °F - 66.0 °F 73% 30.15 in - SE 5.8 mph - N/A   Unknown
10:52 AM 78.1 °F - 66.9 °F 68% 30.14 in - SE 6.9 mph - N/A   Unknown
11:52 AM 79.0 °F - 66.9 °F 66% 30.15 in - Variable 6.9 mph 16.1 mph N/A   Unknown
12:52 PM 80.1 °F 82.3 °F 66.9 °F 64% 30.14 in - ESE 6.9 mph - N/A   Unknown
1:52 PM 82.0 °F 84.9 °F 68.0 °F 62% 30.12 in - ESE 6.9 mph - N/A   Unknown
2:52 PM 82.9 °F 85.8 °F 68.0 °F 60% 30.10 in - Variable 5.8 mph - N/A   Unknown
3:52 PM 81.0 °F 83.0 °F 66.0 °F 60% 30.10 in - ESE 5.8 mph - N/A   Unknown
4:52 PM 82.0 °F 84.5 °F 66.9 °F 60% 30.09 in - ESE 6.9 mph - N/A   Unknown
6:52 PM 81.0 °F 83.0 °F 66.0 °F 60% 30.08 in - East 4.6 mph - N/A   Unknown
7:52 PM 79.0 °F - 64.9 °F 62% 30.09 in - Variable 3.5 mph - N/A   Unknown
8:52 PM 75.0 °F - 64.0 °F 69% 30.09 in - ENE 4.6 mph - N/A   Unknown
9:52 PM 73.9 °F - 64.0 °F 71% 30.10 in - Variable 3.5 mph - N/A   Unknown
10:52 PM 72.0 °F - 63.0 °F 73% 30.11 in - East 3.5 mph - N/A   Unknown
11:52 PM 71.1 °F - 62.1 °F 73% 30.12 in - Variable 3.5 mph - N/A   Unknown